Location: Moscow Pond
(43.6842°N, 73.2366°W)
Time: 07:36:33
(UTC+00:00)

USA 267 - Pass Details

Date: 08 November 2025
Orbit: 1100 x 1108 km, 123.0° (Epoch: 21 November)

Event Time Altitude Azimuth Distance (km) Brightness Sun altitude
Rises 10:16:56 0° 53° (NE) 3,923 6.9 -15.0°
Reaches altitude 10° 10:19:39 10° 44° (NE) 2,963 6.0 -14.5°
Maximum altitude 10:25:21 33° 344° (NNW) 1,751 4.1 -13.5°
Enters shadow 10:29:42 16° 290° (WNW) 2,531 4.5 -12.7°
